Simultaneous Nadir Overpasses (SNOs) Predictions

Prediction of SNOs near US between AQUA and NPP Satellite Orbit:

Table of predicted SNOs near US for the next 10.0 days since TLE Epoch: 7/23/2022
Index Date (AQUA) Time (AQUA) AQUA Lat,Lon Date (NPP) Time (NPP) NPP Lat,Lon Distance(km) Time Diff (sec)
1 07/24/2022 20:12:41 49.98,-108.21 07/24/2022 20:05:05 49.61,-110.28 153.76 456
2 07/30/2022 06:47:09 42.08, -69.43 07/30/2022 06:44:56 42.48, -71.85 203.38 133
3 07/30/2022 08:23:49 49.94, -91.21 07/30/2022 08:24:07 50.50, -94.00 208.42 18
4 08/01/2022 19:21:25 49.95, -95.35 08/01/2022 19:14:26 49.55, -97.58 167.16 419
